User: anonymous
Location: Fort Wayne
(41.1310°N, 85.1290°W)
Time: 00:16:41
(UTC-04:00)
Language:

Cosmos 2227 Rocket - Orbit

View from above orbital plane
View from above orbital plane
View from above satellite
View from above satellite

Ground track
Ground track

The orbit data is extracted from the following two-line orbital elements,

1 22285U 92093B   14243.42105497  .00000106  00000-0  79668-4 0  3821
2 22285 071.0217 193.5050 0006092 253.7434 106.3018 14.14914370118145
Epoch (UTC): 31 August 2014 10:06:19
Eccentricity: 0.0006092
inclination: 71.0217°
perigee height: 838 km
apogee height: 847 km
right ascension of ascending node: 193.5050°
argument of perigee: 253.7434°
revolutions per day: 14.14914370
mean anomaly at epoch: 106.3018°
orbit number at epoch: 11814

The dashed part of the orbit path shows where the satellite is in the earth's shadow,  

DLR